Time,TemperatureF,DewpointF,PressureIn,WindDirection,WindDirectionDegrees,WindSpeedMPH,WindSpeedGustMPH,Humidity,HourlyPrecipIn,Conditions,Clouds,dailyrainin,SoftwareType,DateUTC
2013-03-22 00:03:00,27.0,17.0,-100.00,NW,305,8.0,14.0,65,0.00,,,-99.99,,2013-03-22 04:03:00,
2013-03-22 00:12:00,27.0,17.0,-100.00,WNW,300,9.0,16.0,66,0.00,,,-99.99,,2013-03-22 04:12:00,
2013-03-22 00:23:00,26.0,16.0,-100.00,WNW,295,11.0,14.0,66,0.00,,,-99.99,,2013-03-22 04:23:00,
2013-03-22 00:32:00,26.0,16.0,-100.00,WNW,300,10.0,16.0,66,0.00,,,-99.99,,2013-03-22 04:32:00,
2013-03-22 00:43:00,26.0,17.0,-100.00,NW,305,7.0,13.0,66,0.00,,,-99.99,,2013-03-22 04:43:00,
2013-03-22 00:52:00,26.0,17.0,-100.00,NW,305,9.0,12.0,67,0.00,,,-99.99,,2013-03-22 04:52:00,
2013-03-22 01:02:00,26.0,17.0,-100.00,NW,305,9.0,15.0,66,0.00,,,-99.99,,2013-03-22 05:02:00,
2013-03-22 01:12:00,26.0,17.0,-100.00,NW,310,8.0,16.0,66,0.00,,,-99.99,,2013-03-22 05:12:00,
2013-03-22 01:22:00,26.0,17.0,-100.00,NW,315,10.0,13.0,65,0.00,,,-99.99,,2013-03-22 05:22:00,
2013-03-22 01:32:00,26.0,17.0,-100.00,NW,315,10.0,13.0,65,0.00,,,-99.99,,2013-03-22 05:32:00,
2013-03-22 01:42:00,27.0,17.0,-100.00,NW,310,7.0,14.0,65,0.00,,,-99.99,,2013-03-22 05:42:00,
2013-03-22 01:52:00,27.0,17.0,-100.00,NW,310,9.0,12.0,65,0.00,,,-99.99,,2013-03-22 05:52:00,
2013-03-22 02:02:00,27.0,17.0,-100.00,NW,310,9.0,12.0,65,0.00,,,-99.99,,2013-03-22 06:02:00,
2013-03-22 02:13:00,27.0,17.0,-100.00,WNW,300,8.0,12.0,66,0.00,,,-99.99,,2013-03-22 06:13:00,
2013-03-22 02:22:00,27.0,17.0,-100.00,NW,315,7.0,12.0,67,0.00,,,-99.99,,2013-03-22 06:22:00,
2013-03-22 02:32:00,27.0,17.0,-100.00,NW,310,7.0,11.0,67,0.00,,,-99.99,,2013-03-22 06:32:00,
2013-03-22 02:42:00,26.0,17.0,-100.00,NW,305,12.0,14.0,67,0.00,,,-99.99,,2013-03-22 06:42:00,
2013-03-22 02:52:00,26.0,17.0,-100.00,NW,310,10.0,14.0,67,0.00,,,-99.99,,2013-03-22 06:52:00,
2013-03-22 03:03:00,26.0,17.0,-100.00,NW,305,7.0,12.0,67,0.00,,,-99.99,,2013-03-22 07:03:00,
2013-03-22 03:12:00,26.0,17.0,-100.00,NW,320,9.0,13.0,68,0.00,,,-99.99,,2013-03-22 07:12:00,
2013-03-22 03:22:00,26.0,17.0,-100.00,NW,310,9.0,11.0,69,0.00,,,-99.99,,2013-03-22 07:22:00,
2013-03-22 03:32:00,26.0,17.0,-100.00,NW,310,9.0,11.0,69,0.00,,,-99.99,,2013-03-22 07:32:00,
2013-03-22 03:42:00,26.0,17.0,-100.00,WNW,295,7.0,14.0,69,0.00,,,-99.99,,2013-03-22 07:42:00,
2013-03-22 03:52:00,25.0,17.0,-100.00,WNW,290,9.0,12.0,70,0.00,,,-99.99,,2013-03-22 07:52:00,
2013-03-22 04:03:00,26.0,17.0,-100.00,WNW,295,7.0,11.0,71,0.00,,,-99.99,,2013-03-22 08:03:00,
2013-03-22 04:13:00,25.0,17.0,-100.00,WNW,295,7.0,9.0,71,0.00,,,-99.99,,2013-03-22 08:13:00,
2013-03-22 04:22:00,26.0,18.0,-100.00,WNW,295,8.0,12.0,72,0.00,,,-99.99,,2013-03-22 08:22:00,
2013-03-22 04:32:00,26.0,18.0,-100.00,WNW,290,9.0,12.0,72,0.00,,,-99.99,,2013-03-22 08:32:00,
2013-03-22 04:42:00,26.0,18.0,-100.00,WNW,285,9.0,14.0,72,0.00,,,-99.99,,2013-03-22 08:42:00,
2013-03-22 04:52:00,26.0,18.0,-100.00,WNW,285,9.0,14.0,71,0.00,,,-99.99,,2013-03-22 08:52:00,
2013-03-22 05:02:00,26.0,18.0,-100.00,WNW,290,11.0,14.0,71,0.00,,,-99.99,,2013-03-22 09:02:00,
2013-03-22 05:12:00,26.0,18.0,-100.00,WNW,290,11.0,14.0,71,0.00,,,-99.99,,2013-03-22 09:12:00,
2013-03-22 05:22:00,26.0,18.0,-100.00,WNW,290,11.0,14.0,71,0.00,,,-99.99,,2013-03-22 09:22:00,
2013-03-22 05:32:00,26.0,18.0,-100.00,West,280,9.0,12.0,71,0.00,,,-99.99,,2013-03-22 09:32:00,
2013-03-22 05:42:00,26.0,18.0,-100.00,WNW,285,9.0,14.0,71,0.00,,,-99.99,,2013-03-22 09:42:00,
2013-03-22 05:53:00,26.0,18.0,-100.00,West,270,7.0,12.0,72,0.00,,,-99.99,,2013-03-22 09:53:00,
2013-03-22 06:04:00,26.0,18.0,-100.00,West,270,7.0,12.0,72,0.00,,,-99.99,,2013-03-22 10:04:00,
2013-03-22 06:12:00,26.0,18.0,-100.00,West,275,6.0,8.0,72,0.00,,,-99.99,,2013-03-22 10:12:00,
2013-03-22 06:22:00,26.0,18.0,-100.00,West,270,8.0,10.0,73,0.00,,,-99.99,,2013-03-22 10:22:00,
2013-03-22 06:33:00,26.0,19.0,-100.00,West,270,9.0,11.0,73,0.00,,,-99.99,,2013-03-22 10:33:00,
2013-03-22 06:42:00,26.0,19.0,-100.00,West,275,6.0,9.0,74,0.00,,,-99.99,,2013-03-22 10:42:00,
2013-03-22 06:52:00,26.0,19.0,-100.00,West,280,7.0,9.0,75,0.00,,,-99.99,,2013-03-22 10:52:00,
2013-03-22 07:03:00,26.0,19.0,-100.00,West,265,7.0,9.0,75,0.00,,,-99.99,,2013-03-22 11:03:00,
2013-03-22 07:12:00,26.0,19.0,-100.00,West,275,7.0,11.0,75,0.00,,,-99.99,,2013-03-22 11:12:00,
2013-03-22 07:22:00,25.0,19.0,-100.00,West,280,7.0,10.0,75,0.00,,,-99.99,,2013-03-22 11:22:00,
2013-03-22 07:33:00,25.0,19.0,-100.00,West,280,7.0,10.0,75,0.00,,,-99.99,,2013-03-22 11:33:00,
2013-03-22 07:42:00,26.0,19.0,-100.00,West,270,6.0,11.0,76,0.00,,,-99.99,,2013-03-22 11:42:00,
2013-03-22 07:52:00,25.0,19.0,-100.00,West,270,7.0,9.0,76,0.00,,,-99.99,,2013-03-22 11:52:00,
2013-03-22 08:02:00,25.0,19.0,-100.00,West,265,7.0,10.0,77,0.00,,,-99.99,,2013-03-22 12:02:00,
2013-03-22 08:12:00,25.0,19.0,-100.00,West,260,6.0,9.0,77,0.00,,,-99.99,,2013-03-22 12:12:00,
2013-03-22 08:22:00,24.0,19.0,-100.00,WSW,250,7.0,11.0,79,0.00,,,-99.99,,2013-03-22 12:22:00,
2013-03-22 08:32:00,24.0,19.0,-100.00,SW,235,9.0,11.0,81,0.00,,,-99.99,,2013-03-22 12:32:00,
2013-03-22 08:42:00,23.0,19.0,-100.00,WSW,245,7.0,9.0,82,0.00,,,-99.99,,2013-03-22 12:42:00,
2013-03-22 08:52:00,23.0,19.0,-100.00,WSW,240,6.0,10.0,83,0.00,,,-99.99,,2013-03-22 12:52:00,
2013-03-22 09:02:00,24.0,20.0,-100.00,West,265,6.0,9.0,83,0.00,,,-99.99,,2013-03-22 13:02:00,
2013-03-22 09:12:00,24.0,19.0,-100.00,WSW,255,5.0,9.0,83,0.00,,,-99.99,,2013-03-22 13:12:00,
2013-03-22 09:22:00,24.0,19.0,-100.00,WSW,245,6.0,7.0,83,0.00,,,-99.99,,2013-03-22 13:22:00,
2013-03-22 09:32:00,24.0,20.0,-100.00,West,270,6.0,9.0,82,0.00,,,-99.99,,2013-03-22 13:32:00,
2013-03-22 09:42:00,26.0,21.0,-100.00,West,260,6.0,9.0,81,0.00,,,-99.99,,2013-03-22 13:42:00,
2013-03-22 09:52:00,27.0,21.0,-100.00,West,275,7.0,10.0,78,0.00,,,-99.99,,2013-03-22 13:52:00,
2013-03-22 10:03:00,27.0,21.0,-100.00,West,275,7.0,10.0,78,0.00,,,-99.99,,2013-03-22 14:03:00,
2013-03-22 10:12:00,31.0,22.0,-100.00,WNW,285,6.0,11.0,67,0.00,,,-99.99,,2013-03-22 14:12:00,
2013-03-22 10:22:00,32.0,21.0,-100.00,WNW,285,11.0,14.0,63,0.00,,,-99.99,,2013-03-22 14:22:00,
2013-03-22 10:32:00,32.0,20.0,-100.00,WNW,285,9.0,15.0,60,0.00,,,-99.99,,2013-03-22 14:32:00,
2013-03-22 10:43:00,33.0,19.0,-100.00,WNW,295,11.0,15.0,57,0.00,,,-99.99,,2013-03-22 14:43:00,
2013-03-22 10:52:00,33.0,19.0,-100.00,NW,320,7.0,21.0,55,0.00,,,-99.99,,2013-03-22 14:52:00,
2013-03-22 11:03:00,33.0,19.0,-100.00,NW,305,10.0,14.0,55,0.00,,,-99.99,,2013-03-22 15:03:00,
2013-03-22 11:12:00,34.0,19.0,-100.00,NW,310,7.0,12.0,54,0.00,,,-99.99,,2013-03-22 15:12:00,
2013-03-22 11:22:00,33.0,18.0,-100.00,WNW,295,9.0,13.0,54,0.00,,,-99.99,,2013-03-22 15:22:00,
2013-03-22 11:33:00,35.0,19.0,-100.00,NW,315,7.0,12.0,52,0.00,,,-99.99,,2013-03-22 15:33:00,
2013-03-22 11:42:00,35.0,19.0,-100.00,WNW,300,7.0,14.0,51,0.00,,,-99.99,,2013-03-22 15:42:00,
2013-03-22 11:52:00,34.0,18.0,-100.00,NNW,330,9.0,14.0,51,0.00,,,-99.99,,2013-03-22 15:52:00,
2013-03-22 12:03:00,34.0,18.0,-100.00,NNW,330,9.0,14.0,51,0.00,,,-99.99,,2013-03-22 16:03:00,
2013-03-22 12:13:00,36.0,19.0,-100.00,West,275,9.0,14.0,50,0.00,,,-99.99,,2013-03-22 16:13:00,
2013-03-22 12:23:00,35.0,18.0,-100.00,West,270,11.0,16.0,49,0.00,,,-99.99,,2013-03-22 16:23:00,
2013-03-22 12:32:00,37.0,19.0,-100.00,WNW,290,7.0,14.0,48,0.00,,,-99.99,,2013-03-22 16:32:00,
2013-03-22 12:42:00,37.0,19.0,-100.00,West,270,9.0,16.0,47,0.00,,,-99.99,,2013-03-22 16:42:00,
2013-03-22 12:52:00,37.0,19.0,-100.00,WSW,250,7.0,15.0,47,0.00,,,-99.99,,2013-03-22 16:52:00,
2013-03-22 13:03:00,38.0,20.0,-100.00,West,280,10.0,16.0,46,0.00,,,-99.99,,2013-03-22 17:03:00,
2013-03-22 13:12:00,37.0,19.0,-100.00,WNW,285,7.0,22.0,47,0.00,,,-99.99,,2013-03-22 17:12:00,
2013-03-22 13:23:00,37.0,19.0,-100.00,West,280,9.0,15.0,46,0.00,,,-99.99,,2013-03-22 17:23:00,
2013-03-22 13:32:00,37.0,19.0,-100.00,West,275,9.0,12.0,46,0.00,,,-99.99,,2013-03-22 17:32:00,
2013-03-22 13:42:00,37.0,19.0,-100.00,WSW,255,7.0,16.0,46,0.00,,,-99.99,,2013-03-22 17:42:00,
2013-03-22 13:52:00,39.0,20.0,-100.00,WSW,250,9.0,15.0,45,0.00,,,-99.99,,2013-03-22 17:52:00,
2013-03-22 14:02:00,40.0,20.0,-100.00,WNW,285,9.0,16.0,45,0.00,,,-99.99,,2013-03-22 18:02:00,
2013-03-22 14:12:00,38.0,19.0,-100.00,WSW,245,11.0,14.0,45,0.00,,,-99.99,,2013-03-22 18:12:00,
2013-03-22 14:22:00,40.0,20.0,-100.00,West,270,11.0,16.0,44,0.00,,,-99.99,,2013-03-22 18:22:00,
2013-03-22 14:33:00,40.0,20.0,-100.00,WSW,250,9.0,16.0,44,0.00,,,-99.99,,2013-03-22 18:33:00,
2013-03-22 14:42:00,40.0,20.0,-100.00,West,275,7.0,19.0,44,0.00,,,-99.99,,2013-03-22 18:42:00,
2013-03-22 14:52:00,41.0,21.0,-100.00,WNW,290,10.0,17.0,44,0.00,,,-99.99,,2013-03-22 18:52:00,
2013-03-22 15:02:00,39.0,19.0,-100.00,West,260,9.0,17.0,44,0.00,,,-99.99,,2013-03-22 19:02:00,
2013-03-22 15:12:00,41.0,21.0,-100.00,West,270,12.0,17.0,43,0.00,,,-99.99,,2013-03-22 19:12:00,
2013-03-22 15:22:00,41.0,20.0,-100.00,West,270,9.0,16.0,42,0.00,,,-99.99,,2013-03-22 19:22:00,
2013-03-22 15:32:00,42.0,21.0,-100.00,NW,305,11.0,19.0,42,0.00,,,-99.99,,2013-03-22 19:32:00,
2013-03-22 15:42:00,42.0,21.0,-100.00,NW,305,11.0,19.0,42,0.00,,,-99.99,,2013-03-22 19:42:00,
2013-03-22 15:52:00,41.0,20.0,-100.00,West,275,14.0,18.0,42,0.00,,,-99.99,,2013-03-22 19:52:00,
2013-03-22 16:02:00,42.0,21.0,-100.00,WNW,295,12.0,17.0,42,0.00,,,-99.99,,2013-03-22 20:02:00,
2013-03-22 16:12:00,41.0,20.0,-100.00,WSW,255,14.0,18.0,42,0.00,,,-99.99,,2013-03-22 20:12:00,
2013-03-22 16:22:00,42.0,21.0,-100.00,WSW,255,8.0,12.0,42,0.00,,,-99.99,,2013-03-22 20:22:00,
2013-03-22 16:32:00,42.0,21.0,-100.00,West,260,12.0,17.0,42,0.00,,,-99.99,,2013-03-22 20:32:00,
2013-03-22 16:43:00,43.0,21.0,-100.00,WNW,290,7.0,18.0,41,0.00,,,-99.99,,2013-03-22 20:43:00,
2013-03-22 16:52:00,43.0,21.0,-100.00,West,280,11.0,21.0,42,0.00,,,-99.99,,2013-03-22 20:52:00,
2013-03-22 17:03:00,44.0,22.0,-100.00,West,275,13.0,17.0,41,0.00,,,-99.99,,2013-03-22 21:03:00,
2013-03-22 17:12:00,42.0,20.0,-100.00,West,275,11.0,14.0,40,0.00,,,-99.99,,2013-03-22 21:12:00,
2013-03-22 17:22:00,42.0,20.0,-100.00,West,275,11.0,14.0,40,0.00,,,-99.99,,2013-03-22 21:22:00,
2013-03-22 17:33:00,42.0,20.0,-100.00,West,270,13.0,17.0,41,0.00,,,-99.99,,2013-03-22 21:33:00,
2013-03-22 17:43:00,42.0,20.0,-100.00,WNW,295,12.0,17.0,41,0.00,,,-99.99,,2013-03-22 21:43:00,
2013-03-22 17:53:00,42.0,20.0,-100.00,WSW,245,9.0,14.0,40,0.00,,,-99.99,,2013-03-22 21:53:00,
2013-03-22 18:03:00,43.0,21.0,-100.00,WNW,295,12.0,17.0,40,0.00,,,-99.99,,2013-03-22 22:03:00,
2013-03-22 18:12:00,42.0,20.0,-100.00,West,280,11.0,16.0,40,0.00,,,-99.99,,2013-03-22 22:12:00,
2013-03-22 18:23:00,42.0,20.0,-100.00,West,280,9.0,14.0,40,0.00,,,-99.99,,2013-03-22 22:23:00,
2013-03-22 18:32:00,42.0,20.0,-100.00,West,280,8.0,13.0,40,0.00,,,-99.99,,2013-03-22 22:32:00,
2013-03-22 18:42:00,42.0,20.0,-100.00,NW,305,7.0,11.0,40,0.00,,,-99.99,,2013-03-22 22:42:00,
2013-03-22 18:52:00,42.0,20.0,-100.00,WNW,285,11.0,13.0,40,0.00,,,-99.99,,2013-03-22 22:52:00,
2013-03-22 19:02:00,41.0,19.0,-100.00,West,275,12.0,16.0,41,0.00,,,-99.99,,2013-03-22 23:02:00,
2013-03-22 19:12:00,41.0,20.0,-100.00,West,265,7.0,15.0,42,0.00,,,-99.99,,2013-03-22 23:12:00,
2013-03-22 19:22:00,40.0,19.0,-100.00,West,275,9.0,12.0,42,0.00,,,-99.99,,2013-03-22 23:22:00,
2013-03-22 19:32:00,40.0,19.0,-100.00,West,260,7.0,12.0,42,0.00,,,-99.99,,2013-03-22 23:32:00,
2013-03-22 19:42:00,39.0,19.0,-100.00,West,270,7.0,12.0,44,0.00,,,-99.99,,2013-03-22 23:42:00,
2013-03-22 19:52:00,39.0,19.0,-100.00,West,270,7.0,12.0,44,0.00,,,-99.99,,2013-03-22 23:52:00,
2013-03-22 20:02:00,39.0,19.0,-100.00,West,270,7.0,12.0,44,0.00,,,-99.99,,2013-03-23 00:02:00,
2013-03-22 20:12:00,37.0,18.0,-100.00,West,260,6.0,9.0,45,0.00,,,-99.99,,2013-03-23 00:12:00,
2013-03-22 20:23:00,37.0,18.0,-100.00,West,260,6.0,9.0,46,0.00,,,-99.99,,2013-03-23 00:23:00,
2013-03-22 20:33:00,37.0,18.0,-100.00,West,260,6.0,8.0,46,0.00,,,-99.99,,2013-03-23 00:33:00,
2013-03-22 20:42:00,36.0,18.0,-100.00,WSW,255,6.0,7.0,47,0.00,,,-99.99,,2013-03-23 00:42:00,
2013-03-22 20:52:00,34.0,17.0,-100.00,West,275,5.0,7.0,49,0.00,,,-99.99,,2013-03-23 00:52:00,
2013-03-22 21:03:00,33.0,18.0,-100.00,WNW,290,5.0,6.0,52,0.00,,,-99.99,,2013-03-23 01:03:00,
2013-03-22 21:12:00,32.0,18.0,-100.00,NW,305,4.0,7.0,55,0.00,,,-99.99,,2013-03-23 01:12:00,
2013-03-22 21:22:00,32.0,19.0,-100.00,NW,310,3.0,4.0,57,0.00,,,-99.99,,2013-03-23 01:22:00,
2013-03-22 21:32:00,32.0,19.0,-100.00,NNW,340,3.0,4.0,57,0.00,,,-99.99,,2013-03-23 01:32:00,
2013-03-22 21:42:00,32.0,19.0,-100.00,NNW,340,3.0,4.0,57,0.00,,,-99.99,,2013-03-23 01:42:00,
2013-03-22 21:52:00,33.0,20.0,-100.00,NNW,340,5.0,7.0,58,0.00,,,-99.99,,2013-03-23 01:52:00,
2013-03-22 22:02:00,33.0,21.0,-100.00,NW,325,6.0,8.0,60,0.00,,,-99.99,,2013-03-23 02:02:00,
2013-03-22 22:12:00,33.0,21.0,-100.00,NNW,335,4.0,8.0,62,0.00,,,-99.99,,2013-03-23 02:12:00,
2013-03-22 22:22:00,33.0,22.0,-100.00,NNW,335,4.0,6.0,64,0.00,,,-99.99,,2013-03-23 02:22:00,
2013-03-22 22:32:00,32.0,22.0,-100.00,NNW,330,4.0,6.0,66,0.00,,,-99.99,,2013-03-23 02:32:00,
2013-03-22 22:42:00,32.0,22.0,-100.00,NNW,335,3.0,6.0,67,0.00,,,-99.99,,2013-03-23 02:42:00,
2013-03-22 22:52:00,31.0,22.0,-100.00,NNW,340,2.0,6.0,68,0.00,,,-99.99,,2013-03-23 02:52:00,
2013-03-22 23:02:00,31.0,22.0,-100.00,NNW,345,2.0,4.0,69,0.00,,,-99.99,,2013-03-23 03:02:00,
2013-03-22 23:12:00,30.0,22.0,-100.00,NNW,330,2.0,4.0,70,0.00,,,-99.99,,2013-03-23 03:12:00,
2013-03-22 23:22:00,31.0,22.0,-100.00,NNW,345,2.0,4.0,71,0.00,,,-99.99,,2013-03-23 03:22:00,
2013-03-22 23:33:00,30.0,22.0,-100.00,NNW,345,3.0,4.0,72,0.00,,,-99.99,,2013-03-23 03:33:00,
2013-03-22 23:43:00,30.0,22.0,-100.00,NNW,335,2.0,6.0,72,0.00,,,-99.99,,2013-03-23 03:43:00,
2013-03-22 23:53:00,29.0,22.0,-100.00,NW,325,2.0,4.0,73,0.00,,,-99.99,,2013-03-23 03:53:00,